1317254425140,105.879
1317254485140,106.430
1317254545140,106.187
1317254605140,106.079
1317254665140,106.062
1317254725140,106.240
1317254785140,106.181
1317254845140,105.830
1317254905140,105.776
1317254965140,106.638
1317255025140,105.465
1317255085140,106.052
1317255145140,106.585
1317255205140,106.145
1317255265140,105.993
1317255325140,106.317
1317255385140,105.559
1317255445140,106.510
1317255505140,105.607
1317255565140,106.075
1317255625140,106.491
1317255685140,106.472
1317255745140,106.302
1317255805140,106.253
1317255865140,105.999
1317255925140,106.617
1317255985140,106.037
1317256045140,106.085
1317256105140,106.393
1317256165140,105.910
1317256225140,106.424
1317256285140,105.879
1317256345140,106.063
1317256405140,106.046
1317256465140,106.264
1317256525140,106.260
1317256585140,105.910
1317256645140,106.248
1317256705140,106.095
1317256765140,105.986
1317256825140,106.480
1317256885140,105.923
1317256945140,105.612
1317257005140,105.997
1317257065140,105.992
1317257125140,105.816
1317257185140,105.731
1317257245140,105.674
1317257305140,105.777
1317257365140,105.908
1317257425140,104.993
1317257485140,105.895
1317257545140,105.420
1317257605140,105.718
1317257665140,105.215
1317257725140,105.869
1317257785140,105.454
1317257845140,105.985
1317257905140,105.500
1317257965140,105.654
1317258025151,105.634
1317258085151,105.850
1317258145151,105.095
1317258205151,105.869
1317258265151,105.732
1317258325151,105.495
1317258385151,105.625
1317258445151,105.683
1317258505151,105.711
1317258565151,105.277
1317258625151,105.019
1317258685151,105.356
1317258745151,105.377
1317258805151,105.303
1317258865151,105.231
1317258925151,105.728
1317258985151,105.459
1317259045151,105.527
1317259105151,105.182
1317259165151,105.066
1317259225151,105.037
1317259285151,104.632
1317259345151,105.149
1317259405151,104.837
1317259465151,105.477
1317259525151,105.317
1317259585151,105.038
1317259645151,105.457
1317259705151,104.951
1317259765151,104.853
1317259825151,105.119
1317259885151,104.935
1317259945151,105.104
1317260005151,104.628
1317260065151,104.902
1317260125151,104.231
1317260185151,104.081
1317260245151,104.646
1317260305151,104.472
1317260365151,104.424
1317260425151,105.275
1317260485151,104.721
1317260545151,104.522
1317260605151,104.332
1317260665151,104.943
1317260725151,104.550
1317260785151,104.519
1317260845151,104.335
1317260905151,104.560
1317260965151,104.511
1317261025151,104.509
1317261085151,104.259
1317261145151,104.508
1317261205151,104.817
1317261265151,104.405
1317261325151,104.560
1317261385151,104.362
1317261445151,104.678
1317261505151,103.848
1317261565151,104.243
1317261625162,104.048
1317261685162,104.266
1317261745162,103.971
1317261805162,104.077
1317261865162,104.440
1317261925162,104.331
1317261985162,104.134
1317262045162,104.244
1317262105162,104.248
1317262165162,104.194
1317262225162,103.614
1317262285162,103.619
1317262345162,104.215
1317262405162,103.717
1317262465162,103.563
1317262525162,104.178
1317262585162,103.593
1317262645162,103.775
1317262705162,103.397
1317262765162,103.771
1317262825162,103.551
1317262885162,103.484
1317262945162,103.763
1317263005162,103.596
1317263065162,103.752
1317263125162,103.989
1317263185162,103.867
1317263245162,103.338
1317263305162,103.196
1317263365162,103.641
1317263425162,103.783
1317263485162,103.471
1317263545162,102.920
1317263605162,103.343
1317263665162,103.283
1317263725162,103.208
1317263785162,103.406
1317263845162,103.417
1317263905162,103.368
1317263965162,102.975
1317264025162,103.766
1317264085162,103.787
1317264145162,102.895
1317264205162,102.722
1317264265162,102.993
1317264325162,103.425
1317264385162,103.186
1317264445162,102.950
1317264505162,103.430
1317264565162,103.341
1317264625162,103.252
1317264685162,103.157
1317264745162,102.841
1317264805162,103.480
1317264865162,103.489
1317264925162,103.578
1317264985162,103.705
1317265045162,103.223
1317265105162,103.622
1317265165162,103.434
1317265225173,102.956
1317265285173,103.301
1317265345173,103.697
1317265405173,103.388
1317265465173,103.577
1317265525173,103.576
1317265585173,103.437
1317265645173,103.392
1317265705173,103.466
1317265765173,103.472
1317265825173,103.176
1317265885173,103.619
1317265945173,103.482
1317266005173,103.500
1317266065173,103.395
1317266125173,103.235
1317266185173,103.504
1317266245173,103.350
1317266305173,103.707
1317266365173,103.480
1317266425173,103.577
1317266485173,103.515
1317266545173,104.374
1317266605173,103.327
1317266665173,103.359
1317266725173,103.268
1317266785173,103.825
1317266845173,104.000
1317266905173,103.675
1317266965173,103.721
1317267025173,103.961
1317267085173,103.499
1317267145173,103.970
1317267205173,103.450
1317267265173,104.095
1317267325173,103.674
1317267385173,103.929
1317267445173,103.758
1317267505173,103.693
1317267565173,103.830
1317267625173,103.686
1317267685173,103.858
1317267745173,103.663
1317267805173,103.741
1317267865173,103.650
1317267925173,103.854
1317267985173,103.930
1317268045173,103.892
1317268105173,103.965
1317268165173,103.599
1317268225173,104.278
1317268285173,103.500
1317268345173,103.747
1317268405173,104.011
1317268465173,104.110
1317268525173,103.835
1317268585173,103.617
1317268645173,103.407
1317268705173,103.328
1317268765173,103.925
1317268825183,103.887
1317268885183,103.562
1317268945183,103.005
1317269005183,103.628
1317269065183,103.579
1317269125183,103.315
1317269185183,102.666
1317269245183,103.555
1317269305183,103.683
1317269365183,103.170
1317269425183,103.482
1317269485183,103.214
1317269545183,103.737
1317269605183,103.545
1317269665183,103.295
1317269725183,103.965
1317269785183,103.338
1317269845183,103.461
1317269905183,102.960
1317269965183,103.267
1317270025183,103.300
1317270085183,103.395
1317270145183,102.770
1317270205183,102.922
1317270265183,103.108
1317270325183,103.109
1317270385183,103.537
1317270445183,103.282
1317270505183,103.239
1317270565183,103.357
1317270625183,103.071
1317270685183,103.636
1317270745183,102.905
1317270805183,103.477
1317270865183,103.381
1317270925183,103.000
1317270985183,103.239
1317271045183,103.991
1317271105183,103.115
1317271165183,103.135
1317271225183,103.491
1317271285183,103.520
1317271345183,103.225
1317271405183,103.520
1317271465183,103.510
1317271525183,103.548
1317271585183,103.360
1317271645183,104.003
1317271705183,104.225
1317271765183,103.896
1317271825183,103.580
1317271885183,103.887
1317271945183,103.962
1317272005183,103.578
1317272065183,103.733
1317272125183,104.048
1317272185183,103.462
1317272245183,103.746
1317272305183,103.800
1317272365183,103.701
1317272425194,103.712
1317272485194,103.792
1317272545194,103.546
1317272605194,103.729
1317272665194,103.478
1317272725194,103.466
1317272785194,103.456
1317272845194,104.090
1317272905194,103.827
1317272965194,103.331
1317273025194,103.627
1317273085194,103.589
1317273145194,103.436
1317273205194,103.227
1317273265194,103.341
1317273325194,103.929
1317273385194,103.335
1317273445194,103.896
1317273505194,103.264
1317273565194,103.052
1317273625194,103.401
1317273685194,103.781
1317273745194,103.181
1317273805194,103.505
1317273865194,103.629
1317273925194,103.517
1317273985194,103.578
1317274045194,103.142
1317274105194,103.513
1317274165194,103.512
1317274225194,103.555
1317274285194,103.575
1317274345194,103.770
1317274405194,103.619
1317274465194,103.253
1317274525194,103.641
1317274585194,103.615
1317274645194,103.487
1317274705194,103.535
1317274765194,103.393
1317274825194,103.134
1317274885194,103.249
1317274945194,103.483
1317275005194,103.408
1317275065194,103.219
1317275125194,103.804
1317275185194,103.453
1317275245194,103.516
1317275305194,103.605
1317275365194,103.406
1317275425194,103.643
1317275485194,103.183
1317275545194,103.042
1317275605194,103.725
1317275665194,103.425
1317275725194,103.465
1317275785194,104.038
1317275845194,103.460
1317275905194,103.237
1317275965194,103.361
1317276025204,103.212
1317288565235,106.477
1317288625235,106.290
1317288685235,106.172
1317288745235,106.229
1317288805235,105.833
1317288865235,105.911
1317288925235,106.452
1317288985235,106.106
1317289045235,106.036
1317289105235,106.418
1317289165235,106.324
1317289225235,106.847
1317289285235,106.751
1317289345235,106.508
1317289405235,106.398
1317289465235,106.287
1317289525235,106.530
1317289585235,107.245
1317289645235,106.355
1317289705235,106.694
1317289765235,106.362
1317289825235,106.786
1317289885235,107.092
1317289945235,106.601
1317290005235,107.032
1317290065235,106.919
1317290125235,106.777
1317290185235,107.308
1317290245235,106.932
1317290305235,106.843
1317290365235,106.879
1317290425246,106.741
1317290485246,107.209
1317290545246,107.088
1317290605246,107.093
1317290665246,107.201
1317290725246,106.817
1317290785246,107.436
1317290845246,107.258
1317290905246,107.212
1317290965246,107.488
1317291025246,107.095
1317291085246,107.716
1317291145246,107.389
1317291205246,107.458
1317291265246,107.390
1317291325246,107.100
1317291385246,106.939
1317291445246,106.986
1317291505246,107.165
1317291565246,107.637
1317291625246,107.056
1317291685246,107.934
1317291745246,107.401
1317291805246,107.334
1317291865246,107.396
1317291925246,107.411
1317291985246,107.639
1317292045246,107.318
1317292105246,107.598
1317292165246,107.400
1317292225246,107.738
1317292285246,107.371
1317292345246,107.230
1317292405246,107.701
1317292465246,107.518
1317292525246,107.077
1317292585246,107.343
1317292645246,107.349
1317292705246,107.093
1317292765246,106.630
1317292825246,107.413
1317292885246,107.444
1317292945246,107.060
1317293005246,107.178
1317293065246,107.747
1317293125246,106.877
1317293185246,106.983
1317293245246,107.533
1317293305246,106.970
1317293365246,107.281
1317293425246,106.602
1317293485246,106.909
1317293545246,107.129
1317293605246,106.734
1317293665246,107.653
1317293725246,107.030
1317293785246,107.572
1317293845246,107.288
1317293905246,106.760
1317293965246,106.861
1317294025258,107.016
1317294085258,107.025
1317294145258,107.295
1317294205258,107.111
1317294265258,107.174
1317294325258,107.017
1317294385258,107.226
1317294445258,107.194
1317294505258,106.964
1317294565258,106.911
1317294625258,107.258
1317294685258,107.223
1317294745258,107.059
1317294805258,107.177
1317294865258,106.986
1317294925258,107.367
1317294985258,106.681
1317295045258,107.191
1317295105258,106.812
1317295165258,106.827
1317295225258,106.760
1317295285258,106.930
1317295345258,106.801
1317295405258,107.360
1317295465258,106.526
1317295525258,106.680
1317295585258,106.935
1317295645258,107.056
1317295705258,106.759
1317295765258,107.369
1317295825258,107.332
1317295885258,107.246
1317295945258,107.033
1317296005258,107.439
1317296065258,107.556
1317296125258,107.040
1317296185258,107.210
1317296245258,107.090
1317296305258,107.373
1317296365258,107.296
1317296425258,107.240
1317296485258,107.160
1317296545258,106.861
1317296605258,107.078
1317296665258,106.897
1317296725258,107.341
1317296785258,107.479
1317296845258,107.288
1317296905258,107.125
1317296965258,107.012
1317297025258,106.968
1317297085258,107.379
1317297145258,107.026
1317297205258,107.045
1317297265258,106.773
1317297325258,107.189
1317297385258,107.001
1317297445258,106.849
1317297505258,106.618
1317297565258,106.808
1317297625269,106.799
1317297685269,107.023
1317297745269,106.326
1317297805269,107.091
1317297865269,106.785
1317297925269,106.937
1317297985269,106.896
1317298045269,107.309
1317298105269,106.849
1317298165269,106.911
1317298225269,107.324
1317298285269,107.142
1317298345269,107.056
1317298405269,107.144
1317298465269,107.603
1317298525269,107.220
1317298585269,106.817
1317298645269,106.770
1317298705269,107.149
1317298765269,106.986
1317298825269,106.605
1317298885269,106.809
1317298945269,106.786
1317299005269,107.536
1317299065269,107.070
1317299125269,106.786
1317299185269,106.893
1317299245269,107.713
1317299305269,107.143
1317299365269,106.851
1317299425269,106.337
1317299485269,107.419
1317299545269,107.363
1317299605269,106.610
1317299665269,107.088
1317299725269,107.225
1317299785269,106.510
1317299845269,106.865
1317299905269,106.749
1317299965269,106.709
1317300025269,107.724
1317300085269,106.914
1317300145269,106.994
1317300205269,107.066
1317300265269,107.254
1317300325269,106.230
1317300385269,106.567
1317300445269,106.688
1317300505269,106.662
1317300565269,106.673
1317300625269,107.084
1317300685269,106.615
1317300745269,106.825
1317300805269,106.505
1317300865269,106.650
1317300925269,106.274
1317300985269,106.439
1317301045269,106.759
1317301105269,106.414
1317301165269,106.560
1317301225281,106.695
1317301285281,106.006
1317301345281,106.192
1317301405281,106.503
1317301465281,106.142
1317301525281,105.908
1317301585281,106.296
1317301645281,106.569
1317301705281,105.802
1317301765281,106.349
1317301825281,106.509
1317301885281,106.135
1317301945281,106.328
1317302005281,105.997
1317302065281,105.127
1317302125281,105.579
1317302185281,105.983
1317302245281,106.245
1317302305281,105.653
1317302365281,105.721
1317302425281,105.780
1317302485281,106.091
1317302545281,106.054
1317302605281,105.735
1317302665281,106.015
1317302725281,106.150
1317302785281,105.966
1317302845281,105.876
1317302905281,105.674
1317302965281,105.027
1317303025281,106.081
1317303085281,105.700
1317303145281,105.980
1317303205281,105.903
1317303265281,105.746
1317303325281,105.775
1317303385281,105.666
1317303445281,105.636
1317303505281,105.589
1317303565281,106.142
1317303625281,105.671
1317303685281,105.535
1317303745281,105.725
1317303805281,106.239
1317303865281,105.632
1317303925281,105.211
1317303985281,105.332
1317304045281,105.523
1317304105281,105.021
1317304165281,105.995
1317304225281,105.467
1317304285281,105.718
1317304345281,106.130
1317304405281,105.403
1317304465281,105.649
1317304525281,106.015
1317304585281,106.156
1317304645281,105.692
1317304705281,105.846
1317304765281,105.964
1317304825294,105.811
1317304885294,105.935
1317304945294,105.938
1317305005294,105.991
1317305065294,105.985
1317305125294,105.656
1317305185294,105.873
1317305245294,106.358
1317305305294,106.375
1317305365294,105.920
1317305425294,106.305
1317305485294,106.277
1317305545294,106.350
1317305605294,106.731
1317305665294,106.201
1317305725294,106.211
1317305785294,106.213
1317305845294,106.422
1317305905294,106.307
1317305965294,106.778
1317306025294,106.336
1317306085294,106.093
1317306145294,106.682
1317306205294,106.599
1317306265294,106.889
1317306325294,106.526
1317306385294,106.291
1317306445294,106.708
1317306505294,106.451
1317306565294,105.922
1317306625294,106.688
1317306685294,106.724
1317306745294,106.901
1317306805294,106.235
1317306865294,107.140
1317306925294,106.653
1317306985294,106.890
1317307045294,106.618
1317307105294,106.374
1317307165294,106.959
1317307225294,106.235
1317307285294,106.977
1317307345294,106.313
1317307405294,107.006
1317307465294,107.059
1317307525294,106.421
1317307585294,106.848
1317307645294,107.176
1317307705294,106.412
1317307765294,106.372
1317307825294,106.683
1317307885294,106.591
1317307945294,106.793
1317308005294,106.529
1317308065294,106.555
1317308125294,106.648
1317308185294,106.798
1317308245294,106.936
1317308305294,106.911
1317308365294,106.802
1317308425306,106.608
1317308485306,106.213
1317308545306,106.374
1317308605306,106.854
1317308665306,106.908
1317308725306,106.907
1317308785306,106.671
1317308845306,106.607
1317308905306,106.356
1317308965306,106.356
1317309025306,106.364
1317309085306,106.668
1317309145306,106.363
1317309205306,106.940
1317309265306,106.574
1317309325306,107.131
1317309385306,106.688
1317309445306,106.352
1317309505306,106.138
1317309565306,106.978
1317309625306,107.039
1317309685306,106.864
1317309745306,106.675
1317309805306,106.735
1317309865306,106.967
1317309925306,106.268
1317309985306,106.493
1317310045306,106.366
1317310105306,106.534
1317310165306,106.611
1317310225306,106.329
1317310285306,106.494
1317310345306,106.420
1317310405306,106.435
1317310465306,106.652
1317310525306,106.931
1317310585306,106.445
1317310645306,106.779
1317310705306,106.595
1317310765306,106.475
1317310825306,107.263
1317310885306,107.007
1317310945306,106.961
1317311005306,107.115
1317311065306,106.705
1317311125306,106.616
1317311185306,106.951
1317311245306,106.783
1317311305306,106.599
1317311365306,106.455
1317311425306,106.671
1317311485306,107.528
1317311545306,107.125
1317311605306,106.478
1317311665306,106.955
1317311725306,106.997
1317311785306,106.749
1317311845306,106.730
1317311905306,106.670
1317311965306,106.577
1317312025319,106.484
1317312085319,106.649
1317312145319,106.574
1317312205319,106.182
1317312265319,106.603
1317312325319,106.969
1317312385319,106.619
1317312445319,106.422
1317312505319,106.646
1317312565319,106.717
1317312625319,106.237
1317312685319,106.411
1317312745319,106.759
1317312805319,106.719
1317312865319,106.612
1317312925319,106.743
1317312985319,106.200
1317313045319,106.120
1317313105319,106.681
1317313165319,106.281
1317313225319,106.775
1317313285319,106.256
1317313345319,106.802
1317313405319,106.632
1317313465319,106.635
1317313525319,106.751
1317313585319,106.861
1317313645319,106.746
1317313705319,107.007
1317313765319,106.612
1317313825319,106.747
1317313885319,106.541
1317313945319,106.837
1317314005319,106.666
1317314065319,106.865
1317314125319,106.776
1317314185319,106.860
1317314245319,106.513
1317314305319,106.974
1317314365319,106.518
1317314425319,106.913
1317314485319,106.801
1317314545319,106.957
1317314605319,107.197
1317314665319,106.889
1317314725319,107.381
1317314785319,107.163
1317314845319,106.664
1317314905319,106.915
1317314965319,106.885
1317315025319,106.745
1317315085319,106.260
1317315145319,106.803
1317315205319,106.436
1317315265319,106.810
1317315325319,107.009
1317315385319,106.608
1317315445319,107.008
1317315505319,107.220
1317315565319,106.616
1317315625332,106.861
1317315685332,106.937
1317315745332,107.390
1317315805332,107.735
1317315865332,106.955
1317315925332,107.111
1317315985332,106.921
1317316045332,107.057
1317316105332,107.167
1317316165332,107.116
1317316225332,106.572
1317316285332,107.131
1317316345332,107.485
1317316405332,107.233
1317316465332,107.019
1317316525332,107.182
1317316585332,108.019
1317316645332,107.418
1317316705332,107.487
1317316765332,107.375
1317316825332,107.267
1317316885332,107.492
1317316945332,106.842
1317317005332,107.041
1317317065332,107.434
1317317125332,107.517
1317317185332,108.124
1317317245332,107.391
1317317305332,107.748
1317317365332,107.310
1317317425332,107.010
1317317485332,106.987
1317317545332,107.437
1317317605332,107.252
1317317665332,107.431
1317317725332,107.598
1317317785332,107.388
1317317845332,107.213
1317317905332,107.103
1317317965332,107.499
1317318025332,107.289
1317318085332,107.664
1317318145332,107.645
1317318205332,107.590
1317318265332,107.823
1317318325332,107.764
1317318385332,107.457
1317318445332,107.510
1317318505332,107.383
1317318565332,107.550
1317318625332,107.127
1317318685332,107.675
1317318745332,107.417
1317318805332,107.654
1317318865332,107.717
1317318925332,107.834
1317318985332,107.630
1317319045332,107.965
1317319105332,108.001
1317319165332,107.752
1317319225344,107.829
1317319285344,107.506
1317319345344,108.157
1317319405344,108.031
1317319465344,108.140
1317319525344,108.689
1317319585344,107.573
1317319645344,108.501
1317319705344,108.077
1317319765344,108.158
1317319825344,108.133
1317319885344,108.041
1317319945344,108.034
1317320005344,108.304
1317320065344,107.848
1317320125344,107.968
1317320185344,108.145
1317320245344,107.765
1317320305344,107.855
1317320365344,108.382
1317320425344,107.965
1317320485344,108.306
1317320545344,108.031
1317320605344,107.827
1317320665344,107.583
1317320725344,107.761
1317320785344,107.602
1317320845344,107.914
1317320905344,108.160
1317320965344,108.046
1317321025344,108.204
1317321085344,108.448
1317321145344,107.816
1317321205344,108.138
1317321265344,108.312
1317321325344,107.958
1317321385344,108.134
1317321445344,108.307
1317321505344,108.471
1317321565344,107.764
1317321625344,107.789
1317321685344,107.728
1317321745344,107.874
1317321805344,107.936
1317321865344,107.500
1317321925344,107.751
1317321985344,107.878
1317322045344,108.099
1317322105344,108.267
1317322165344,107.310
1317322225344,107.659
1317322285344,107.597
1317322345344,108.113
1317322405344,108.041
1317322465344,108.078
1317322525344,108.240
1317322585344,108.159
1317322645344,107.907
1317322705344,108.129
1317322765344,107.631
1317322825357,108.336
1317322885357,108.370
1317322945357,108.562
1317323005357,107.787
1317323065357,108.190
1317323125357,107.863
1317323185357,107.769
1317323245357,107.642
1317323305357,107.831
1317323365357,107.269
1317323425357,107.606
1317323485357,108.055
1317324025357,107.120
1317324085357,107.704
1317324145357,107.917
1317324205357,108.123
1317324265357,108.130
1317324325357,107.830
1317324385357,108.092
1317324445357,107.902
1317324505357,108.565
1317324565357,108.131
1317324625357,108.311
1317324685357,108.101
1317324745357,107.573
1317324805357,108.502
1317324865357,107.926
1317324925357,107.853
1317324985357,108.567
1317325045357,108.286
1317325105357,107.905
1317325165357,108.475
1317325225357,108.169
1317325285357,108.219
1317325345357,108.311
1317325405357,108.288
1317325465357,109.053
1317325525357,108.025
1317325585357,108.786
1317325645357,108.378
1317325705357,108.800
1317325765357,108.580
1317325825357,109.251
1317325885357,108.306
1317325945357,108.552
1317326005357,108.727
1317326065357,108.570
1317326125357,108.741
1317326185357,108.829
1317326245357,108.651
1317326305357,109.257
1317326365357,108.906
1317326425369,109.173
1317326485369,109.463
1317326545369,109.229
1317326605369,109.681
1317326665369,109.069
1317326725369,108.832
1317326785369,109.112
1317326845369,109.299
1317326905369,109.011
1317326965369,108.933
1317327025369,109.068
1317327085369,109.977
1317327145369,109.423
1317327205369,108.926
1317327265369,109.980
1317327325369,109.462
1317327385369,109.526
1317327445369,109.451
1317327505369,109.508
1317327565369,109.193
1317327625369,110.136
1317327685369,109.612
1317327745369,110.207
1317327805369,109.314
1317327865369,110.430
1317327925369,110.165
1317327985369,109.959
1317328045369,110.145
1317328105369,110.531
1317328165369,110.481
1317328225369,109.961
1317328285369,110.142
1317328345369,110.588
1317328405369,109.969
1317328465369,109.919
1317328525369,110.238
1317328585369,110.640
1317328645369,109.919
1317328705369,110.462
1317328765369,109.879
1317328825369,110.196
1317328885369,110.163
1317328945369,110.031
1317329005369,110.424
1317329065369,110.414
1317329125369,109.906
1317329185369,110.537
1317329245369,110.508
1317329305369,109.974
1317329365369,110.518
1317329425369,110.062
1317329485369,110.513
1317329545369,110.640
1317329605369,110.282
1317329665369,110.160
1317329725369,110.781
1317329785369,110.303
1317329845369,110.736
1317329905369,110.410
1317329965369,110.758
1317330025382,110.103
1317330085382,110.389
1317330145382,111.055
1317330205382,110.660
1317330265382,111.172
1317330325382,111.246
1317330385382,111.338
1317330445382,110.310
1317330505382,111.016
1317330565382,110.868
1317330625382,110.869
1317330685382,111.400
1317330745382,111.109
1317330805382,110.332
1317330865382,110.670
1317330925382,110.833
1317330985382,110.681
1317331045382,111.069
1317331105382,110.866
1317331165382,110.892
1317331225382,110.718
1317331285382,110.738
1317331345382,110.656
1317331405382,111.033
1317331465382,110.690
1317331525382,110.091
1317331585382,110.519
1317331645382,110.728
1317331705382,110.294
1317331765382,110.564
1317331825382,110.506
1317331885382,110.471
1317331945382,110.760
1317332005382,110.757
1317332065382,110.802
1317332125382,110.719
1317332185382,110.701
1317332245382,110.844
1317332305382,110.109
1317332365382,110.754
1317332425382,110.613
1317332485382,110.833
1317332545382,110.385
1317332605382,110.820
1317332665382,110.326
1317332725382,110.348